owner,sensor,date,latitude,longitude,vertical_datum,sea_water_temperature,qcFlag 
SCCF RECON,ioos:station:SCCF:18:1,2019-01-01T05:00:00Z,26.6955,-81.8138,1.49,24.6,11111222 
SCCF RECON,ioos:station:SCCF:18:1,2019-01-01T06:00:00Z,26.6955,-81.8138,1.49,24.78,11111222 
SCCF RECON,ioos:station:SCCF:18:1,2019-01-01T07:00:00Z,26.6955,-81.8138,1.49,24.46,11111222 
SCCF RECON,ioos:station:SCCF:18:1,2019-01-01T08:00:00Z,26.6955,-81.8138,1.49,25.02,11111222 
SCCF RECON,ioos:station:SCCF:18:1,2019-01-01T09:00:00Z,26.6955,-81.8138,1.49,25.27,11111222 
SCCF RECON,ioos:station:SCCF:18:1,2019-01-01T10:00:00Z,26.6955,-81.8138,1.49,24.78,11111222 
SCCF RECON,ioos:station:SCCF:18:1,2019-01-01T11:00:00Z,26.6955,-81.8138,1.49,24.75,11111222 
SCCF RECON,ioos:station:SCCF:18:1,2019-01-01T12:00:00Z,26.6955,-81.8138,1.49,24.47,11111222 
SCCF RECON,ioos:station:SCCF:18:1,2019-01-01T13:00:00Z,26.6955,-81.8138,1.49,23.89,11111222 
SCCF RECON,ioos:station:SCCF:18:1,2019-01-01T14:00:00Z,26.6955,-81.8138,1.49,24.24,11111222 
SCCF RECON,ioos:station:SCCF:18:1,2019-01-01T15:00:00Z,26.6955,-81.8138,1.49,24.29,11111222 
SCCF RECON,ioos:station:SCCF:18:1,2019-01-01T16:00:00Z,26.6955,-81.8138,1.49,24.64,11111222 
SCCF RECON,ioos:station:SCCF:18:1,2019-01-01T17:00:00Z,26.6955,-81.8138,1.49,24.44,11111222 
SCCF RECON,ioos:station:SCCF:18:1,2019-01-01T18:00:00Z,26.6955,-81.8138,1.49,24.74,11111222 
SCCF RECON,ioos:station:SCCF:18:1,2019-01-01T19:00:00Z,26.6955,-81.8138,1.49,25.01,11111222 
SCCF RECON,ioos:station:SCCF:18:1,2019-01-01T20:00:00Z,26.6955,-81.8138,1.49,24.97,11111222 
SCCF RECON,ioos:station:SCCF:18:1,2019-01-01T21:00:00Z,26.6955,-81.8138,1.49,25.17,11111222 
SCCF RECON,ioos:station:SCCF:18:1,2019-01-01T22:00:00Z,26.6955,-81.8138,1.49,25.07,11111222 
SCCF RECON,ioos:station:SCCF:18:1,2019-01-01T23:00:00Z,26.6955,-81.8138,1.49,24.71,11111222 
SCCF RECON,ioos:station:SCCF:18:1,2019-01-02T05:00:00Z,26.6955,-81.8138,1.49,24.96,11111222 
SCCF RECON,ioos:station:SCCF:18:1,2019-01-02T06:00:00Z,26.6955,-81.8138,1.49,24.95,11111222 
SCCF RECON,ioos:station:SCCF:18:1,2019-01-02T07:00:00Z,26.6955,-81.8138,1.49,24.77,11111222 
SCCF RECON,ioos:station:SCCF:18:1,2019-01-02T08:00:00Z,26.6955,-81.8138,1.49,24.6,11111222 
SCCF RECON,ioos:station:SCCF:18:1,2019-01-02T09:00:00Z,26.6955,-81.8138,1.49,24.63,11111222 
SCCF RECON,ioos:station:SCCF:18:1,2019-01-02T10:00:00Z,26.6955,-81.8138,1.49,25.24,11111222 
SCCF RECON,ioos:station:SCCF:18:1,2019-01-02T11:00:00Z,26.6955,-81.8138,1.49,24.61,11111222 
SCCF RECON,ioos:station:SCCF:18:1,2019-01-02T12:00:00Z,26.6955,-81.8138,1.49,24.78,11111222 
SCCF RECON,ioos:station:SCCF:18:1,2019-01-02T13:00:00Z,26.6955,-81.8138,1.49,24.6,11111222 
SCCF RECON,ioos:station:SCCF:18:1,2019-01-02T14:00:00Z,26.6955,-81.8138,1.49,24.06,11111222 
SCCF RECON,ioos:station:SCCF:18:1,2019-01-02T15:00:00Z,26.6955,-81.8138,1.49,23.69,11111222 
SCCF RECON,ioos:station:SCCF:18:1,2019-01-02T16:00:00Z,26.6955,-81.8138,1.49,24.48,11111222 
SCCF RECON,ioos:station:SCCF:18:1,2019-01-02T17:00:00Z,26.6955,-81.8138,1.49,25.07,11111222 
SCCF RECON,ioos:station:SCCF:18:1,2019-01-02T18:00:00Z,26.6955,-81.8138,1.49,25.68,11111222 
SCCF RECON,ioos:station:SCCF:18:1,2019-01-02T19:00:00Z,26.6955,-81.8138,1.49,25.73,11111222 
SCCF RECON,ioos:station:SCCF:18:1,2019-01-02T20:00:00Z,26.6955,-81.8138,1.49,25.91,11111222 
SCCF RECON,ioos:station:SCCF:18:1,2019-01-02T21:00:00Z,26.6955,-81.8138,1.49,25.96,11111222 
SCCF RECON,ioos:station:SCCF:18:1,2019-01-02T22:00:00Z,26.6955,-81.8138,1.49,26.47,11111222 
SCCF RECON,ioos:station:SCCF:18:1,2019-01-02T23:00:00Z,26.6955,-81.8138,1.49,26.17,11111222 
SCCF RECON,ioos:station:SCCF:18:1,2019-01-03T05:00:00Z,26.6955,-81.8138,1.49,25.6,11111222 
SCCF RECON,ioos:station:SCCF:18:1,2019-01-03T06:00:00Z,26.6955,-81.8138,1.49,25.38,11111222 
SCCF RECON,ioos:station:SCCF:18:1,2019-01-03T07:00:00Z,26.6955,-81.8138,1.49,25.33,11111222 
SCCF RECON,ioos:station:SCCF:18:1,2019-01-03T08:00:00Z,26.6955,-81.8138,1.49,25.35,11111222 
SCCF RECON,ioos:station:SCCF:18:1,2019-01-03T09:00:00Z,26.6955,-81.8138,1.49,25.69,11111222 
SCCF RECON,ioos:station:SCCF:18:1,2019-01-03T10:00:00Z,26.6955,-81.8138,1.49,25.45,11111222 
SCCF RECON,ioos:station:SCCF:18:1,2019-01-03T11:00:00Z,26.6955,-81.8138,1.49,25.32,11111222 
SCCF RECON,ioos:station:SCCF:18:1,2019-01-03T12:00:00Z,26.6955,-81.8138,1.49,25.58,11111222 
SCCF RECON,ioos:station:SCCF:18:1,2019-01-03T13:00:00Z,26.6955,-81.8138,1.49,25.69,11111222 
SCCF RECON,ioos:station:SCCF:18:1,2019-01-03T14:00:00Z,26.6955,-81.8138,1.49,25.02,11111222 
SCCF RECON,ioos:station:SCCF:18:1,2019-01-03T15:00:00Z,26.6955,-81.8138,1.49,24.63,11111222 
SCCF RECON,ioos:station:SCCF:18:1,2019-01-03T16:00:00Z,26.6955,-81.8138,1.49,25.55,11111222 
SCCF RECON,ioos:station:SCCF:18:1,2019-01-03T17:00:00Z,26.6955,-81.8138,1.49,26.05,11111222 
SCCF RECON,ioos:station:SCCF:18:1,2019-01-03T18:00:00Z,26.6955,-81.8138,1.49,26.17,11111222 
SCCF RECON,ioos:station:SCCF:18:1,2019-01-03T19:00:00Z,26.6955,-81.8138,1.49,26.26,11111222 
SCCF RECON,ioos:station:SCCF:18:1,2019-01-03T20:00:00Z,26.6955,-81.8138,1.49,26.02,11111222 
SCCF RECON,ioos:station:SCCF:18:1,2019-01-03T21:00:00Z,26.6955,-81.8138,1.49,26.16,11111222 
SCCF RECON,ioos:station:SCCF:18:1,2019-01-03T22:00:00Z,26.6955,-81.8138,1.49,26.42,11111222 
SCCF RECON,ioos:station:SCCF:18:1,2019-01-03T23:00:00Z,26.6955,-81.8138,1.49,26.41,11111222 
SCCF RECON,ioos:station:SCCF:18:1,2019-01-04T05:00:00Z,26.6955,-81.8138,1.49,25.59,11111222 
SCCF RECON,ioos:station:SCCF:18:1,2019-01-04T06:00:00Z,26.6955,-81.8138,1.49,25.58,11111222 
SCCF RECON,ioos:station:SCCF:18:1,2019-01-04T07:00:00Z,26.6955,-81.8138,1.49,25.34,11111222 
SCCF RECON,ioos:station:SCCF:18:1,2019-01-04T08:00:00Z,26.6955,-81.8138,1.49,25.36,11111222 
SCCF RECON,ioos:station:SCCF:18:1,2019-01-04T09:00:00Z,26.6955,-81.8138,1.49,25.46,11111222 
SCCF RECON,ioos:station:SCCF:18:1,2019-01-04T10:00:00Z,26.6955,-81.8138,1.49,26.39,11111222 
SCCF RECON,ioos:station:SCCF:18:1,2019-01-04T11:00:00Z,26.6955,-81.8138,1.49,26.09,11111222 
SCCF RECON,ioos:station:SCCF:18:1,2019-01-04T12:00:00Z,26.6955,-81.8138,1.49,25.71,11111222 
SCCF RECON,ioos:station:SCCF:18:1,2019-01-04T13:00:00Z,26.6955,-81.8138,1.49,27.04,11111222 
SCCF RECON,ioos:station:SCCF:18:1,2019-01-04T14:00:00Z,26.6955,-81.8138,1.49,26.77,11111222 
SCCF RECON,ioos:station:SCCF:18:1,2019-01-04T15:00:00Z,26.6955,-81.8138,1.49,26.04,11111222 
SCCF RECON,ioos:station:SCCF:18:1,2019-01-04T16:00:00Z,26.6955,-81.8138,1.49,27.31,11111222 
SCCF RECON,ioos:station:SCCF:18:1,2019-01-04T17:00:00Z,26.6955,-81.8138,1.49,27.28,11111222 
SCCF RECON,ioos:station:SCCF:18:1,2019-01-04T18:00:00Z,26.6955,-81.8138,1.49,27.0,11111222 
SCCF RECON,ioos:station:SCCF:18:1,2019-01-04T19:00:00Z,26.6955,-81.8138,1.49,26.72,11111222 
SCCF RECON,ioos:station:SCCF:18:1,2019-01-04T20:00:00Z,26.6955,-81.8138,1.49,26.56,11111222 
SCCF RECON,ioos:station:SCCF:18:1,2019-01-04T21:00:00Z,26.6955,-81.8138,1.49,26.52,11111222 
SCCF RECON,ioos:station:SCCF:18:1,2019-01-04T22:00:00Z,26.6955,-81.8138,1.49,26.45,11111222 
SCCF RECON,ioos:station:SCCF:18:1,2019-01-04T23:00:00Z,26.6955,-81.8138,1.49,26.42,11111222 
SCCF RECON,ioos:station:SCCF:18:1,2019-01-05T05:00:00Z,26.6955,-81.8138,1.49,25.5,11111222 
SCCF RECON,ioos:station:SCCF:18:1,2019-01-05T06:00:00Z,26.6955,-81.8138,1.49,25.42,11111222 
SCCF RECON,ioos:station:SCCF:18:1,2019-01-05T07:00:00Z,26.6955,-81.8138,1.49,25.37,11111222 
SCCF RECON,ioos:station:SCCF:18:1,2019-01-05T08:00:00Z,26.6955,-81.8138,1.49,25.33,11111222 
SCCF RECON,ioos:station:SCCF:18:1,2019-01-05T09:00:00Z,26.6955,-81.8138,1.49,25.46,11111222 
SCCF RECON,ioos:station:SCCF:18:1,2019-01-05T10:00:00Z,26.6955,-81.8138,1.49,25.77,11111222 
SCCF RECON,ioos:station:SCCF:18:1,2019-01-05T11:00:00Z,26.6955,-81.8138,1.49,25.66,11111222 
SCCF RECON,ioos:station:SCCF:18:1,2019-01-05T12:00:00Z,26.6955,-81.8138,1.49,26.09,11111222 
SCCF RECON,ioos:station:SCCF:18:1,2019-01-05T13:00:00Z,26.6955,-81.8138,1.49,26.7,11111222 
SCCF RECON,ioos:station:SCCF:18:1,2019-01-05T14:00:00Z,26.6955,-81.8138,1.49,26.2,11111222 
SCCF RECON,ioos:station:SCCF:18:1,2019-01-05T15:00:00Z,26.6955,-81.8138,1.49,26.18,11111222 
SCCF RECON,ioos:station:SCCF:18:1,2019-01-05T16:00:00Z,26.6955,-81.8138,1.49,25.91,11111222 
SCCF RECON,ioos:station:SCCF:18:1,2019-01-05T17:00:00Z,26.6955,-81.8138,1.49,25.88,11111222 
SCCF RECON,ioos:station:SCCF:18:1,2019-01-05T18:00:00Z,26.6955,-81.8138,1.49,25.7,11111222 
SCCF RECON,ioos:station:SCCF:18:1,2019-01-05T19:00:00Z,26.6955,-81.8138,1.49,25.78,11111222 
SCCF RECON,ioos:station:SCCF:18:1,2019-01-05T20:00:00Z,26.6955,-81.8138,1.49,25.74,11111222 
SCCF RECON,ioos:station:SCCF:18:1,2019-01-05T21:00:00Z,26.6955,-81.8138,1.49,25.59,11111222 
SCCF RECON,ioos:station:SCCF:18:1,2019-01-05T22:00:00Z,26.6955,-81.8138,1.49,25.6,11111222 
SCCF RECON,ioos:station:SCCF:18:1,2019-01-05T23:00:00Z,26.6955,-81.8138,1.49,25.65,11111222 
SCCF RECON,ioos:station:SCCF:18:1,2019-01-06T05:00:00Z,26.6955,-81.8138,1.49,24.88,11111222 
SCCF RECON,ioos:station:SCCF:18:1,2019-01-06T06:00:00Z,26.6955,-81.8138,1.49,24.4,11111222 
SCCF RECON,ioos:station:SCCF:18:1,2019-01-06T07:00:00Z,26.6955,-81.8138,1.49,24.43,11111222 
SCCF RECON,ioos:station:SCCF:18:1,2019-01-06T08:00:00Z,26.6955,-81.8138,1.49,24.4,11111222 
SCCF RECON,ioos:station:SCCF:18:1,2019-01-06T09:00:00Z,26.6955,-81.8138,1.49,24.2,11111222 
SCCF RECON,ioos:station:SCCF:18:1,2019-01-06T10:00:00Z,26.6955,-81.8138,1.49,24.41,11111222 
SCCF RECON,ioos:station:SCCF:18:1,2019-01-06T11:00:00Z,26.6955,-81.8138,1.49,24.37,11111222 
SCCF RECON,ioos:station:SCCF:18:1,2019-01-06T12:00:00Z,26.6955,-81.8138,1.49,24.33,11111222 
SCCF RECON,ioos:station:SCCF:18:1,2019-01-06T13:00:00Z,26.6955,-81.8138,1.49,24.02,11111222 
SCCF RECON,ioos:station:SCCF:18:1,2019-01-06T14:00:00Z,26.6955,-81.8138,1.49,24.03,11111222 
SCCF RECON,ioos:station:SCCF:18:1,2019-01-06T15:00:00Z,26.6955,-81.8138,1.49,23.78,11111222 
SCCF RECON,ioos:station:SCCF:18:1,2019-01-06T16:00:00Z,26.6955,-81.8138,1.49,23.98,11111222 
SCCF RECON,ioos:station:SCCF:18:1,2019-01-06T17:00:00Z,26.6955,-81.8138,1.49,24.6,11111222 
SCCF RECON,ioos:station:SCCF:18:1,2019-01-06T18:00:00Z,26.6955,-81.8138,1.49,25.02,11111222 
SCCF RECON,ioos:station:SCCF:18:1,2019-01-06T19:00:00Z,26.6955,-81.8138,1.49,24.91,11111222 
SCCF RECON,ioos:station:SCCF:18:1,2019-01-06T20:00:00Z,26.6955,-81.8138,1.49,25.06,11111222 
SCCF RECON,ioos:station:SCCF:18:1,2019-01-06T21:00:00Z,26.6955,-81.8138,1.49,24.85,11111222 
SCCF RECON,ioos:station:SCCF:18:1,2019-01-06T22:00:00Z,26.6955,-81.8138,1.49,24.87,11111222 
SCCF RECON,ioos:station:SCCF:18:1,2019-01-06T23:00:00Z,26.6955,-81.8138,1.49,25.01,11111222 
SCCF RECON,ioos:station:SCCF:18:1,2019-01-07T05:00:00Z,26.6955,-81.8138,1.49,24.28,11111222 
SCCF RECON,ioos:station:SCCF:18:1,2019-01-07T06:00:00Z,26.6955,-81.8138,1.49,23.72,11111222 
SCCF RECON,ioos:station:SCCF:18:1,2019-01-07T07:00:00Z,26.6955,-81.8138,1.49,23.43,11111222 
SCCF RECON,ioos:station:SCCF:18:1,2019-01-07T09:00:00Z,26.6955,-81.8138,1.49,23.46,11111222 
SCCF RECON,ioos:station:SCCF:18:1,2019-01-07T10:00:00Z,26.6955,-81.8138,1.49,23.38,11111222 
SCCF RECON,ioos:station:SCCF:18:1,2019-01-07T11:00:00Z,26.6955,-81.8138,1.49,23.53,11111222 
SCCF RECON,ioos:station:SCCF:18:1,2019-01-07T12:00:00Z,26.6955,-81.8138,1.49,23.5,11111222 
SCCF RECON,ioos:station:SCCF:18:1,2019-01-07T13:00:00Z,26.6955,-81.8138,1.49,23.55,11111222 
SCCF RECON,ioos:station:SCCF:18:1,2019-01-07T14:00:00Z,26.6955,-81.8138,1.49,23.93,11111222 
SCCF RECON,ioos:station:SCCF:18:1,2019-01-07T15:00:00Z,26.6955,-81.8138,1.49,24.14,11111222 
SCCF RECON,ioos:station:SCCF:18:1,2019-01-07T16:00:00Z,26.6955,-81.8138,1.49,23.87,11111222 
SCCF RECON,ioos:station:SCCF:18:1,2019-01-07T17:00:00Z,26.6955,-81.8138,1.49,24.48,11111222 
SCCF RECON,ioos:station:SCCF:18:1,2019-01-07T18:00:00Z,26.6955,-81.8138,1.49,24.89,11111222 
SCCF RECON,ioos:station:SCCF:18:1,2019-01-07T19:00:00Z,26.6955,-81.8138,1.49,24.64,11111222 
SCCF RECON,ioos:station:SCCF:18:1,2019-01-07T20:00:00Z,26.6955,-81.8138,1.49,25.11,11111222 
SCCF RECON,ioos:station:SCCF:18:1,2019-01-07T21:00:00Z,26.6955,-81.8138,1.49,25.18,11111222 
SCCF RECON,ioos:station:SCCF:18:1,2019-01-07T22:00:00Z,26.6955,-81.8138,1.49,25.05,11111222 
SCCF RECON,ioos:station:SCCF:18:1,2019-01-07T23:00:00Z,26.6955,-81.8138,1.49,24.95,11111222 
SCCF RECON,ioos:station:SCCF:18:1,2019-01-08T05:00:00Z,26.6955,-81.8138,1.49,24.97,11111222 
SCCF RECON,ioos:station:SCCF:18:1,2019-01-08T06:00:00Z,26.6955,-81.8138,1.49,24.58,11111222 
SCCF RECON,ioos:station:SCCF:18:1,2019-01-08T07:00:00Z,26.6955,-81.8138,1.49,23.98,11111222 
SCCF RECON,ioos:station:SCCF:18:1,2019-01-08T08:00:00Z,26.6955,-81.8138,1.49,23.97,11111222 
SCCF RECON,ioos:station:SCCF:18:1,2019-01-08T09:00:00Z,26.6955,-81.8138,1.49,23.85,11111222 
SCCF RECON,ioos:station:SCCF:18:1,2019-01-08T10:00:00Z,26.6955,-81.8138,1.49,23.95,11111222 
SCCF RECON,ioos:station:SCCF:18:1,2019-01-08T11:00:00Z,26.6955,-81.8138,1.49,23.87,11111222 
SCCF RECON,ioos:station:SCCF:18:1,2019-01-08T12:00:00Z,26.6955,-81.8138,1.49,23.84,11111222 
SCCF RECON,ioos:station:SCCF:18:1,2019-01-08T13:00:00Z,26.6955,-81.8138,1.49,24.13,11111222 
SCCF RECON,ioos:station:SCCF:18:1,2019-01-08T14:00:00Z,26.6955,-81.8138,1.49,23.8,11111222 
SCCF RECON,ioos:station:SCCF:18:1,2019-01-08T15:00:00Z,26.6955,-81.8138,1.49,24.08,11111222 
SCCF RECON,ioos:station:SCCF:18:1,2019-01-08T16:00:00Z,26.6955,-81.8138,1.49,24.29,11111222 
SCCF RECON,ioos:station:SCCF:18:1,2019-01-08T17:00:00Z,26.6955,-81.8138,1.49,24.59,11111222 
SCCF RECON,ioos:station:SCCF:18:1,2019-01-08T18:00:00Z,26.6955,-81.8138,1.49,24.87,11111222 
SCCF RECON,ioos:station:SCCF:18:1,2019-01-08T19:00:00Z,26.6955,-81.8138,1.49,24.71,11111222 
SCCF RECON,ioos:station:SCCF:18:1,2019-01-08T20:00:00Z,26.6955,-81.8138,1.49,24.9,11111222 
SCCF RECON,ioos:station:SCCF:18:1,2019-01-08T21:00:00Z,26.6955,-81.8138,1.49,25.12,11111222 
SCCF RECON,ioos:station:SCCF:18:1,2019-01-08T22:00:00Z,26.6955,-81.8138,1.49,25.25,11111222 
SCCF RECON,ioos:station:SCCF:18:1,2019-01-08T23:00:00Z,26.6955,-81.8138,1.49,25.03,11111222 
SCCF RECON,ioos:station:SCCF:18:1,2019-01-09T05:00:00Z,26.6955,-81.8138,1.49,24.98,11111222 
SCCF RECON,ioos:station:SCCF:18:1,2019-01-09T06:00:00Z,26.6955,-81.8138,1.49,24.76,11111222 
SCCF RECON,ioos:station:SCCF:18:1,2019-01-09T07:00:00Z,26.6955,-81.8138,1.49,24.37,11111222 
SCCF RECON,ioos:station:SCCF:18:1,2019-01-09T08:00:00Z,26.6955,-81.8138,1.49,24.16,11111222 
SCCF RECON,ioos:station:SCCF:18:1,2019-01-09T09:00:00Z,26.6955,-81.8138,1.49,24.16,11111222 
SCCF RECON,ioos:station:SCCF:18:1,2019-01-09T10:00:00Z,26.6955,-81.8138,1.49,24.28,11111222 
SCCF RECON,ioos:station:SCCF:18:1,2019-01-09T11:00:00Z,26.6955,-81.8138,1.49,24.4,11111222 
SCCF RECON,ioos:station:SCCF:18:1,2019-01-09T12:00:00Z,26.6955,-81.8138,1.49,24.14,11111222 
SCCF RECON,ioos:station:SCCF:18:1,2019-01-09T13:00:00Z,26.6955,-81.8138,1.49,24.52,11111222 
SCCF RECON,ioos:station:SCCF:18:1,2019-01-09T14:00:00Z,26.6955,-81.8138,1.49,24.22,11111222 
SCCF RECON,ioos:station:SCCF:18:1,2019-01-09T15:00:00Z,26.6955,-81.8138,1.49,24.17,11111222 
SCCF RECON,ioos:station:SCCF:18:1,2019-01-09T18:00:00Z,26.6955,-81.8138,1.49,23.47,11111222 
SCCF RECON,ioos:station:SCCF:18:1,2019-01-09T19:00:00Z,26.6955,-81.8138,1.49,23.26,11111222 
SCCF RECON,ioos:station:SCCF:18:1,2019-01-09T20:00:00Z,26.6955,-81.8138,1.49,23.47,11111222 
SCCF RECON,ioos:station:SCCF:18:1,2019-01-09T21:00:00Z,26.6955,-81.8138,1.49,23.89,11111222 
SCCF RECON,ioos:station:SCCF:18:1,2019-01-09T22:00:00Z,26.6955,-81.8138,1.49,24.12,11111222 
SCCF RECON,ioos:station:SCCF:18:1,2019-01-09T23:00:00Z,26.6955,-81.8138,1.49,23.65,11111222 
SCCF RECON,ioos:station:SCCF:18:1,2019-01-10T05:00:00Z,26.6955,-81.8138,1.49,22.26,11111222 
SCCF RECON,ioos:station:SCCF:18:1,2019-01-10T06:00:00Z,26.6955,-81.8138,1.49,22.18,11111222 
SCCF RECON,ioos:station:SCCF:18:1,2019-01-10T07:00:00Z,26.6955,-81.8138,1.49,22.58,11111222 
SCCF RECON,ioos:station:SCCF:18:1,2019-01-10T08:00:00Z,26.6955,-81.8138,1.49,22.05,11111222 
SCCF RECON,ioos:station:SCCF:18:1,2019-01-10T09:00:00Z,26.6955,-81.8138,1.49,22.05,11111222 
SCCF RECON,ioos:station:SCCF:18:1,2019-01-10T10:00:00Z,26.6955,-81.8138,1.49,21.89,11111222 
SCCF RECON,ioos:station:SCCF:18:1,2019-01-10T11:00:00Z,26.6955,-81.8138,1.49,21.53,11111222 
SCCF RECON,ioos:station:SCCF:18:1,2019-01-10T12:00:00Z,26.6955,-81.8138,1.49,20.96,11111222 
SCCF RECON,ioos:station:SCCF:18:1,2019-01-10T13:00:00Z,26.6955,-81.8138,1.49,21.33,11111222 
SCCF RECON,ioos:station:SCCF:18:1,2019-01-10T14:00:00Z,26.6955,-81.8138,1.49,21.21,11111222 
SCCF RECON,ioos:station:SCCF:18:1,2019-01-10T15:00:00Z,26.6955,-81.8138,1.49,20.72,11111222 
SCCF RECON,ioos:station:SCCF:18:1,2019-01-10T16:00:00Z,26.6955,-81.8138,1.49,20.84,11111222 
SCCF RECON,ioos:station:SCCF:18:1,2019-01-10T17:00:00Z,26.6955,-81.8138,1.49,20.99,11111222 
SCCF RECON,ioos:station:SCCF:18:1,2019-01-10T18:00:00Z,26.6955,-81.8138,1.49,21.17,11111222 
SCCF RECON,ioos:station:SCCF:18:1,2019-01-10T19:00:00Z,26.6955,-81.8138,1.49,21.37,11111222 
SCCF RECON,ioos:station:SCCF:18:1,2019-01-10T23:00:00Z,26.6955,-81.8138,1.49,21.53,11111222 
SCCF RECON,ioos:station:SCCF:18:1,2019-01-11T05:00:00Z,26.6955,-81.8138,1.49,21.42,11111222 
SCCF RECON,ioos:station:SCCF:18:1,2019-01-11T06:00:00Z,26.6955,-81.8138,1.49,20.55,11111222 
SCCF RECON,ioos:station:SCCF:18:1,2019-01-11T07:00:00Z,26.6955,-81.8138,1.49,20.53,11111222 
SCCF RECON,ioos:station:SCCF:18:1,2019-01-11T08:00:00Z,26.6955,-81.8138,1.49,20.36,11111222 
SCCF RECON,ioos:station:SCCF:18:1,2019-01-11T09:00:00Z,26.6955,-81.8138,1.49,19.93,11111222 
SCCF RECON,ioos:station:SCCF:18:1,2019-01-11T10:00:00Z,26.6955,-81.8138,1.49,19.76,11111222 
SCCF RECON,ioos:station:SCCF:18:1,2019-01-11T11:00:00Z,26.6955,-81.8138,1.49,19.47,11111222 
SCCF RECON,ioos:station:SCCF:18:1,2019-01-11T12:00:00Z,26.6955,-81.8138,1.49,19.51,11111222 
SCCF RECON,ioos:station:SCCF:18:1,2019-01-11T13:00:00Z,26.6955,-81.8138,1.49,19.03,11111222 
SCCF RECON,ioos:station:SCCF:18:1,2019-01-11T14:00:00Z,26.6955,-81.8138,1.49,19.1,11111222 
SCCF RECON,ioos:station:SCCF:18:1,2019-01-11T15:00:00Z,26.6955,-81.8138,1.49,19.58,11111222 
SCCF RECON,ioos:station:SCCF:18:1,2019-01-11T17:00:00Z,26.6955,-81.8138,1.49,19.89,11111222 
SCCF RECON,ioos:station:SCCF:18:1,2019-01-11T18:00:00Z,26.6955,-81.8138,1.49,20.12,11111222 
SCCF RECON,ioos:station:SCCF:18:1,2019-01-11T20:00:00Z,26.6955,-81.8138,1.49,20.52,11111222 
SCCF RECON,ioos:station:SCCF:18:1,2019-01-11T22:00:00Z,26.6955,-81.8138,1.49,20.68,11111222 
SCCF RECON,ioos:station:SCCF:18:1,2019-01-12T05:00:00Z,26.6955,-81.8138,1.49,20.25,11111222 
SCCF RECON,ioos:station:SCCF:18:1,2019-01-12T06:00:00Z,26.6955,-81.8138,1.49,20.48,11111222 
SCCF RECON,ioos:station:SCCF:18:1,2019-01-12T07:00:00Z,26.6955,-81.8138,1.49,20.28,11111222 
SCCF RECON,ioos:station:SCCF:18:1,2019-01-12T08:00:00Z,26.6955,-81.8138,1.49,19.9,11111222 
SCCF RECON,ioos:station:SCCF:18:1,2019-01-12T09:00:00Z,26.6955,-81.8138,1.49,19.93,11111222 
SCCF RECON,ioos:station:SCCF:18:1,2019-01-12T10:00:00Z,26.6955,-81.8138,1.49,19.69,11111222 
SCCF RECON,ioos:station:SCCF:18:1,2019-01-12T11:00:00Z,26.6955,-81.8138,1.49,19.47,11111222 
SCCF RECON,ioos:station:SCCF:18:1,2019-01-12T12:00:00Z,26.6955,-81.8138,1.49,19.75,11111222 
SCCF RECON,ioos:station:SCCF:18:1,2019-01-12T13:00:00Z,26.6955,-81.8138,1.49,19.77,11111222 
SCCF RECON,ioos:station:SCCF:18:1,2019-01-12T14:00:00Z,26.6955,-81.8138,1.49,19.37,11111222 
SCCF RECON,ioos:station:SCCF:18:1,2019-01-12T15:00:00Z,26.6955,-81.8138,1.49,19.8,11111222 
SCCF RECON,ioos:station:SCCF:18:1,2019-01-12T16:00:00Z,26.6955,-81.8138,1.49,20.06,11111222 
SCCF RECON,ioos:station:SCCF:18:1,2019-01-12T17:00:00Z,26.6955,-81.8138,1.49,20.1,11111222 
SCCF RECON,ioos:station:SCCF:18:1,2019-01-12T18:00:00Z,26.6955,-81.8138,1.49,20.32,11111222 
SCCF RECON,ioos:station:SCCF:18:1,2019-01-12T19:00:00Z,26.6955,-81.8138,1.49,20.67,11111222 
SCCF RECON,ioos:station:SCCF:18:1,2019-01-12T20:00:00Z,26.6955,-81.8138,1.49,20.68,11111222 
SCCF RECON,ioos:station:SCCF:18:1,2019-01-12T21:00:00Z,26.6955,-81.8138,1.49,20.61,11111222 
SCCF RECON,ioos:station:SCCF:18:1,2019-01-12T22:00:00Z,26.6955,-81.8138,1.49,20.99,11111222 
SCCF RECON,ioos:station:SCCF:18:1,2019-01-13T05:00:00Z,26.6955,-81.8138,1.49,21.08,11111222 
SCCF RECON,ioos:station:SCCF:18:1,2019-01-13T06:00:00Z,26.6955,-81.8138,1.49,20.98,11111222 
SCCF RECON,ioos:station:SCCF:18:1,2019-01-13T07:00:00Z,26.6955,-81.8138,1.49,21.06,11111222 
SCCF RECON,ioos:station:SCCF:18:1,2019-01-13T08:00:00Z,26.6955,-81.8138,1.49,20.79,11111222 
SCCF RECON,ioos:station:SCCF:18:1,2019-01-13T09:00:00Z,26.6955,-81.8138,1.49,20.67,11111222 
SCCF RECON,ioos:station:SCCF:18:1,2019-01-13T10:00:00Z,26.6955,-81.8138,1.49,20.73,11111222 
SCCF RECON,ioos:station:SCCF:18:1,2019-01-13T11:00:00Z,26.6955,-81.8138,1.49,20.45,11111222 
SCCF RECON,ioos:station:SCCF:18:1,2019-01-13T12:00:00Z,26.6955,-81.8138,1.49,20.64,11111222 
SCCF RECON,ioos:station:SCCF:18:1,2019-01-13T13:00:00Z,26.6955,-81.8138,1.49,20.7,11111222 
SCCF RECON,ioos:station:SCCF:18:1,2019-01-13T14:00:00Z,26.6955,-81.8138,1.49,20.45,11111222 
SCCF RECON,ioos:station:SCCF:18:1,2019-01-13T15:00:00Z,26.6955,-81.8138,1.49,20.73,11111222 
SCCF RECON,ioos:station:SCCF:18:1,2019-01-13T16:00:00Z,26.6955,-81.8138,1.49,20.8,11111222 
SCCF RECON,ioos:station:SCCF:18:1,2019-01-13T17:00:00Z,26.6955,-81.8138,1.49,20.83,11111222 
SCCF RECON,ioos:station:SCCF:18:1,2019-01-13T18:00:00Z,26.6955,-81.8138,1.49,20.86,11111222 
SCCF RECON,ioos:station:SCCF:18:1,2019-01-13T19:00:00Z,26.6955,-81.8138,1.49,21.38,11111222 
SCCF RECON,ioos:station:SCCF:18:1,2019-01-13T20:00:00Z,26.6955,-81.8138,1.49,21.28,11111222 
SCCF RECON,ioos:station:SCCF:18:1,2019-01-13T21:00:00Z,26.6955,-81.8138,1.49,21.45,11111222 
SCCF RECON,ioos:station:SCCF:18:1,2019-01-13T22:00:00Z,26.6955,-81.8138,1.49,21.74,11111222 
SCCF RECON,ioos:station:SCCF:18:1,2019-01-14T05:00:00Z,26.6955,-81.8138,1.49,21.76,11111222 
SCCF RECON,ioos:station:SCCF:18:1,2019-01-14T06:00:00Z,26.6955,-81.8138,1.49,21.82,11111222 
SCCF RECON,ioos:station:SCCF:18:1,2019-01-14T07:00:00Z,26.6955,-81.8138,1.49,21.56,11111222 
SCCF RECON,ioos:station:SCCF:18:1,2019-01-14T08:00:00Z,26.6955,-81.8138,1.49,21.53,11111222 
SCCF RECON,ioos:station:SCCF:18:1,2019-01-14T09:00:00Z,26.6955,-81.8138,1.49,21.58,11111222 
SCCF RECON,ioos:station:SCCF:18:1,2019-01-14T10:00:00Z,26.6955,-81.8138,1.49,21.51,11111222 
SCCF RECON,ioos:station:SCCF:18:1,2019-01-14T11:00:00Z,26.6955,-81.8138,1.49,21.51,11111222 
SCCF RECON,ioos:station:SCCF:18:1,2019-01-14T12:00:00Z,26.6955,-81.8138,1.49,21.3,11111222 
SCCF RECON,ioos:station:SCCF:18:1,2019-01-14T13:00:00Z,26.6955,-81.8138,1.49,21.15,11111222 
SCCF RECON,ioos:station:SCCF:18:1,2019-01-14T14:00:00Z,26.6955,-81.8138,1.49,21.04,11111222 
SCCF RECON,ioos:station:SCCF:18:1,2019-01-14T15:00:00Z,26.6955,-81.8138,1.49,21.17,11111222 
SCCF RECON,ioos:station:SCCF:18:1,2019-01-14T16:00:00Z,26.6955,-81.8138,1.49,21.32,11111222 
SCCF RECON,ioos:station:SCCF:18:1,2019-01-14T17:00:00Z,26.6955,-81.8138,1.49,21.38,11111222 
SCCF RECON,ioos:station:SCCF:18:1,2019-01-14T18:00:00Z,26.6955,-81.8138,1.49,21.27,11111222 
SCCF RECON,ioos:station:SCCF:18:1,2019-01-14T19:00:00Z,26.6955,-81.8138,1.49,21.6,11111222 
SCCF RECON,ioos:station:SCCF:18:1,2019-01-14T20:00:00Z,26.6955,-81.8138,1.49,21.73,11111222 
SCCF RECON,ioos:station:SCCF:18:1,2019-01-14T21:00:00Z,26.6955,-81.8138,1.49,21.83,11111222 
SCCF RECON,ioos:station:SCCF:18:1,2019-01-14T22:00:00Z,26.6955,-81.8138,1.49,21.63,11111222 
SCCF RECON,ioos:station:SCCF:18:1,2019-01-15T05:00:00Z,26.6955,-81.8138,1.49,21.3,11111222 
SCCF RECON,ioos:station:SCCF:18:1,2019-01-15T06:00:00Z,26.6955,-81.8138,1.49,21.11,11111222 
SCCF RECON,ioos:station:SCCF:18:1,2019-01-15T07:00:00Z,26.6955,-81.8138,1.49,21.13,11111222 
SCCF RECON,ioos:station:SCCF:18:1,2019-01-15T08:00:00Z,26.6955,-81.8138,1.49,20.86,11111222 